Tracking 28790 objects as of 19-Apr-2024
HD Live streaming from Space Station
objects crossing your sky now

COSMOS 823

Track COSMOS 823 now!
10-day predictions
COSMOS 823 is classified as:


NORAD ID: 8873
Int'l Code: 1976-051A
Perigee: 978.9 km
Apogee: 1,010.0 km
Inclination: 83.0 °
Period: 104.8 minutes
Semi major axis: 7365 km
RCS: 1.7893 m2 (large)
Launch date: June 2, 1976
Source: Commonwealth of Independent States (former USSR) (CIS)
Launch site: PLESETSK MISSILE AND SPACE COMPLEX (PKMTR)
Your satellite tracking list
Your tracking list is empty




NASA's NSSDC Master Catalog

Two Line Element Set (TLE):
1 08873U 76051A   24109.21537036  .00000103  00000-0  94285-4 0  9994
2 08873  82.9699 358.0807 0021136 254.3256 220.2791 13.73423916398701
Source of the keplerian elements: AFSPC